This is the latest recevied weather packets stored in our database for station/object OK9CPU-9. If no packets are shown the sender has not sent any weather packets the latest 10 day(s).
| Time | Temp. | Humidity | Pressure | Rain* | Wind** | Luminosity | Snow |
|---|---|---|---|---|---|---|---|
| 1777252889 | 2.78° C | 32% | 1024.7 hPa | - | - | - | - |
| 1777251901 | 2.78° C | 32% | 1024.7 hPa | - | - | - | - |
| 1777249904 | 3.33° C | 33% | 1024.9 hPa | - | - | - | - |
| 1777248909 | 3.89° C | 33% | 1025 hPa | - | - | - | - |
| 1777247921 | 3.89° C | 33% | 1024.9 hPa | - | - | - | - |
| 1777246919 | 4.44° C | 32% | 1025 hPa | - | - | - | - |
| 1777245924 | 4.44° C | 33% | 1025 hPa | - | - | - | - |
| 1777244929 | 5° C | 33% | 1024.9 hPa | - | - | - | - |
| 1777243934 | 5° C | 33% | 1024.9 hPa | - | - | - | - |
| 1777242938 | 5° C | 33% | 1024.9 hPa | - | - | - | - |
| 1777241951 | 5.56° C | 33% | 1024.7 hPa | - | - | - | - |
| 1777240949 | 5.56° C | 33% | 1024.6 hPa | - | - | - | - |
| 1777239953 | 6.11° C | 34% | 1024.6 hPa | - | - | - | - |
| 1777238966 | 6.67° C | 34% | 1024.6 hPa | - | - | - | - |
| 1777237963 | 6.67° C | 33% | 1024.5 hPa | - | - | - | - |
| 1777236968 | 7.22° C | 34% | 1024.4 hPa | - | - | - | - |
| 1777235973 | 7.78° C | 34% | 1024.2 hPa | - | - | - | - |
| 1777234978 | 8.33° C | 34% | 1024.2 hPa | - | - | - | - |
| 1777233983 | 8.89° C | 34% | 1024 hPa | - | - | - | - |
| 1777232988 | 9.44° C | 34% | 1024 hPa | - | - | - | - |
| 1777231993 | 9.44° C | 33% | 1023.9 hPa | - | - | - | - |
| 1777230998 | 9.44° C | 34% | 1023.6 hPa | - | - | - | - |
| 1777230011 | 10° C | 34% | 1023.5 hPa | - | - | - | - |
| 1777229015 | 10.56° C | 34% | 1023.3 hPa | - | - | - | - |
| 1777228013 | 10.56° C | 34% | 1023.1 hPa | - | - | - | - |
* Rain since midnight (hover to see other rain measurements)
** Current wind speed in m/s (hover to see current wind gust speed)